<?xml version="1.0" encoding="UTF-8" standalone="no" ?>
<gpx xmlns="http://www.topografix.com/GPX/1/1" xmlns:xsi="http://www.w3.org/2001/XMLSchema-instance" xsi:schemaLocation="http://www.topografix.com/GPX/1/1 http://www.topografix.com/GPX/1/1/gpx.xsd" version="1.1" creator="VisuGPX - https://www.visugpx.com">
  <metadata>
    <name>circuits VTT</name>
  </metadata>
  <trk>
    <name><![CDATA[04 Tintaine - TraceGps issued]]></name>
    <extensions>
      <line xmlns="http://www.topografix.com/GPX/gpx_style/0/2">
        <color>FF0000</color>
        <width>4</width>
      </line>
    </extensions>
    <trkseg>
      <trkpt lat="43.1084" lon="3.08992">
        <ele>0.262527</ele>
        <time>2009-11-04T14:46:56Z</time>
      </trkpt>
      <trkpt lat="43.10966" lon="3.09033">
        <ele>0.060733</ele>
        <time>2009-11-04T14:46:56Z</time>
      </trkpt>
      <trkpt lat="43.11433" lon="3.09219">
        <ele>1.180039</ele>
        <time>2009-11-04T14:46:56Z</time>
      </trkpt>
      <trkpt lat="43.11455" lon="3.0931">
        <ele>2</ele>
        <time>2009-11-04T14:46:56Z</time>
      </trkpt>
      <trkpt lat="43.11564" lon="3.0946">
        <ele>2.550109</ele>
        <time>2009-11-04T14:46:56Z</time>
      </trkpt>
      <trkpt lat="43.11548" lon="3.0957">
        <ele>2.199917</ele>
        <time>2009-11-04T14:46:56Z</time>
      </trkpt>
      <trkpt lat="43.11541" lon="3.09668">
        <ele>2.061765</ele>
        <time>2009-11-04T14:46:56Z</time>
      </trkpt>
      <trkpt lat="43.11546" lon="3.0983">
        <ele>1.949991</ele>
        <time>2009-11-04T14:46:56Z</time>
      </trkpt>
      <trkpt lat="43.11556" lon="3.09935">
        <ele>1.450046</ele>
        <time>2009-11-04T14:46:56Z</time>
      </trkpt>
      <trkpt lat="43.11568" lon="3.10027">
        <ele>1.855363</ele>
        <time>2009-11-04T14:46:56Z</time>
      </trkpt>
      <trkpt lat="43.11602" lon="3.10118">
        <ele>2.486753</ele>
        <time>2009-11-04T14:46:56Z</time>
      </trkpt>
      <trkpt lat="43.11621" lon="3.10178">
        <ele>2.936583</ele>
        <time>2009-11-04T14:46:56Z</time>
      </trkpt>
      <trkpt lat="43.11642" lon="3.10333">
        <ele>2</ele>
        <time>2009-11-04T14:46:56Z</time>
      </trkpt>
      <trkpt lat="43.11693" lon="3.10346">
        <ele>2.210077</ele>
        <time>2009-11-04T14:46:56Z</time>
      </trkpt>
      <trkpt lat="43.11791" lon="3.10412">
        <ele>2.246979</ele>
        <time>2009-11-04T14:46:56Z</time>
      </trkpt>
      <trkpt lat="43.11832" lon="3.10405">
        <ele>2.813639</ele>
        <time>2009-11-04T14:46:56Z</time>
      </trkpt>
      <trkpt lat="43.11866" lon="3.10376">
        <ele>3</ele>
        <time>2009-11-04T14:46:56Z</time>
      </trkpt>
      <trkpt lat="43.11921" lon="3.10317">
        <ele>3.963352</ele>
        <time>2009-11-04T14:46:56Z</time>
      </trkpt>
      <trkpt lat="43.11959" lon="3.10259">
        <ele>4.391961</ele>
        <time>2009-11-04T14:46:56Z</time>
      </trkpt>
      <trkpt lat="43.11997" lon="3.10191">
        <ele>5</ele>
        <time>2009-11-04T14:46:56Z</time>
      </trkpt>
      <trkpt lat="43.12032" lon="3.10127">
        <ele>6.024216</ele>
        <time>2009-11-04T14:46:56Z</time>
      </trkpt>
      <trkpt lat="43.1205" lon="3.10085">
        <ele>6.699178</ele>
        <time>2009-11-04T14:46:56Z</time>
      </trkpt>
      <trkpt lat="43.12085" lon="3.1015">
        <ele>6.169834</ele>
        <time>2009-11-04T14:46:56Z</time>
      </trkpt>
      <trkpt lat="43.12035" lon="3.10222">
        <ele>5.076666</ele>
        <time>2009-11-04T14:46:56Z</time>
      </trkpt>
      <trkpt lat="43.11963" lon="3.10356">
        <ele>4</ele>
        <time>2009-11-04T14:46:56Z</time>
      </trkpt>
      <trkpt lat="43.11911" lon="3.10442">
        <ele>3.436735</ele>
        <time>2009-11-04T14:46:56Z</time>
      </trkpt>
      <trkpt lat="43.11907" lon="3.10478">
        <ele>3.336604</ele>
        <time>2009-11-04T14:46:56Z</time>
      </trkpt>
      <trkpt lat="43.11957" lon="3.10492">
        <ele>4</ele>
        <time>2009-11-04T14:46:56Z</time>
      </trkpt>
      <trkpt lat="43.12037" lon="3.10554">
        <ele>4.012496</ele>
        <time>2009-11-04T14:46:56Z</time>
      </trkpt>
      <trkpt lat="43.12119" lon="3.10569">
        <ele>4</ele>
        <time>2009-11-04T14:46:56Z</time>
      </trkpt>
      <trkpt lat="43.1218" lon="3.10602">
        <ele>4</ele>
        <time>2009-11-04T14:46:56Z</time>
      </trkpt>
      <trkpt lat="43.12236" lon="3.10543">
        <ele>3.81171</ele>
        <time>2009-11-04T14:46:56Z</time>
      </trkpt>
      <trkpt lat="43.12318" lon="3.10515">
        <ele>4.49996</ele>
        <time>2009-11-04T14:46:56Z</time>
      </trkpt>
      <trkpt lat="43.12379" lon="3.10461">
        <ele>7.550161</ele>
        <time>2009-11-04T14:46:56Z</time>
      </trkpt>
      <trkpt lat="43.12424" lon="3.10399">
        <ele>10.672723</ele>
        <time>2009-11-04T14:46:56Z</time>
      </trkpt>
      <trkpt lat="43.12478" lon="3.10462">
        <ele>17.497572</ele>
        <time>2009-11-04T14:46:56Z</time>
      </trkpt>
      <trkpt lat="43.12514" lon="3.10426">
        <ele>20.346735</ele>
        <time>2009-11-04T14:46:56Z</time>
      </trkpt>
      <trkpt lat="43.12561" lon="3.10433">
        <ele>18.840014</ele>
        <time>2009-11-04T14:46:56Z</time>
      </trkpt>
      <trkpt lat="43.12569" lon="3.10509">
        <ele>13.210046</ele>
        <time>2009-11-04T14:46:56Z</time>
      </trkpt>
      <trkpt lat="43.12621" lon="3.10587">
        <ele>13.524524</ele>
        <time>2009-11-04T14:46:56Z</time>
      </trkpt>
      <trkpt lat="43.12633" lon="3.10651">
        <ele>15.604153</ele>
        <time>2009-11-04T14:46:56Z</time>
      </trkpt>
      <trkpt lat="43.12669" lon="3.10719">
        <ele>17.77527</ele>
        <time>2009-11-04T14:46:56Z</time>
      </trkpt>
      <trkpt lat="43.12684" lon="3.10801">
        <ele>16.159962</ele>
        <time>2009-11-04T14:46:56Z</time>
      </trkpt>
      <trkpt lat="43.12659" lon="3.1086">
        <ele>14.639769</ele>
        <time>2009-11-04T14:46:56Z</time>
      </trkpt>
      <trkpt lat="43.12652" lon="3.10952">
        <ele>12.699649</ele>
        <time>2009-11-04T14:46:56Z</time>
      </trkpt>
      <trkpt lat="43.12674" lon="3.11038">
        <ele>17.898888</ele>
        <time>2009-11-04T14:46:56Z</time>
      </trkpt>
      <trkpt lat="43.127" lon="3.11097">
        <ele>17.803123</ele>
        <time>2009-11-04T14:46:56Z</time>
      </trkpt>
      <trkpt lat="43.12738" lon="3.11165">
        <ele>12.237262</ele>
        <time>2009-11-04T14:46:56Z</time>
      </trkpt>
      <trkpt lat="43.12735" lon="3.11257">
        <ele>11.200027</ele>
        <time>2009-11-04T14:46:56Z</time>
      </trkpt>
      <trkpt lat="43.12742" lon="3.11324">
        <ele>11.815439</ele>
        <time>2009-11-04T14:46:56Z</time>
      </trkpt>
      <trkpt lat="43.12707" lon="3.11373">
        <ele>10.410553</ele>
        <time>2009-11-04T14:46:56Z</time>
      </trkpt>
      <trkpt lat="43.12577" lon="3.11359">
        <ele>8.969971</ele>
        <time>2009-11-04T14:46:56Z</time>
      </trkpt>
      <trkpt lat="43.12523" lon="3.1139">
        <ele>7.524227</ele>
        <time>2009-11-04T14:46:56Z</time>
      </trkpt>
      <trkpt lat="43.12516" lon="3.11444">
        <ele>7.15022</ele>
        <time>2009-11-04T14:46:56Z</time>
      </trkpt>
      <trkpt lat="43.12582" lon="3.1165">
        <ele>8.950294</ele>
        <time>2009-11-04T14:46:56Z</time>
      </trkpt>
      <trkpt lat="43.12635" lon="3.11725">
        <ele>10.674823</ele>
        <time>2009-11-04T14:46:56Z</time>
      </trkpt>
      <trkpt lat="43.12688" lon="3.11802">
        <ele>9.399973</ele>
        <time>2009-11-04T14:46:56Z</time>
      </trkpt>
      <trkpt lat="43.12737" lon="3.11804">
        <ele>11.309242</ele>
        <time>2009-11-04T14:46:56Z</time>
      </trkpt>
      <trkpt lat="43.12856" lon="3.11556">
        <ele>15.935028</ele>
        <time>2009-11-04T14:46:56Z</time>
      </trkpt>
      <trkpt lat="43.1292" lon="3.11701">
        <ele>13.955018</ele>
        <time>2009-11-04T14:46:56Z</time>
      </trkpt>
      <trkpt lat="43.12946" lon="3.1176">
        <ele>12.912492</ele>
        <time>2009-11-04T14:46:56Z</time>
      </trkpt>
      <trkpt lat="43.13003" lon="3.11806">
        <ele>10.092708</ele>
        <time>2009-11-04T14:46:56Z</time>
      </trkpt>
      <trkpt lat="43.13" lon="3.11904">
        <ele>9.199967</ele>
        <time>2009-11-04T14:46:56Z</time>
      </trkpt>
      <trkpt lat="43.13048" lon="3.11907">
        <ele>9.224216</ele>
        <time>2009-11-04T14:46:56Z</time>
      </trkpt>
      <trkpt lat="43.13105" lon="3.11933">
        <ele>15.049249</ele>
        <time>2009-11-04T14:46:56Z</time>
      </trkpt>
      <trkpt lat="43.13115" lon="3.12065">
        <ele>10.924612</ele>
        <time>2009-11-04T14:46:56Z</time>
      </trkpt>
      <trkpt lat="43.13117" lon="3.12151">
        <ele>5.850058</ele>
        <time>2009-11-04T14:46:56Z</time>
      </trkpt>
      <trkpt lat="43.1311" lon="3.12219">
        <ele>3.622211</ele>
        <time>2009-11-04T14:46:56Z</time>
      </trkpt>
      <trkpt lat="43.13062" lon="3.12298">
        <ele>5.95242</ele>
        <time>2009-11-04T14:46:56Z</time>
      </trkpt>
      <trkpt lat="43.1306" lon="3.12319">
        <ele>6.215041</ele>
        <time>2009-11-04T14:46:56Z</time>
      </trkpt>
      <trkpt lat="43.13106" lon="3.12378">
        <ele>10.856173</ele>
        <time>2009-11-04T14:46:56Z</time>
      </trkpt>
      <trkpt lat="43.13187" lon="3.12465">
        <ele>7.182784</ele>
        <time>2009-11-04T14:46:56Z</time>
      </trkpt>
      <trkpt lat="43.13221" lon="3.12505">
        <ele>6.728421</ele>
        <time>2009-11-04T14:46:56Z</time>
      </trkpt>
      <trkpt lat="43.13276" lon="3.12546">
        <ele>6.258873</ele>
        <time>2009-11-04T14:46:56Z</time>
      </trkpt>
      <trkpt lat="43.13313" lon="3.12448">
        <ele>6.162883</ele>
        <time>2009-11-04T14:46:56Z</time>
      </trkpt>
      <trkpt lat="43.13311" lon="3.12387">
        <ele>12.647593</ele>
        <time>2009-11-04T14:46:56Z</time>
      </trkpt>
      <trkpt lat="43.13301" lon="3.12365">
        <ele>16.573271</ele>
        <time>2009-11-04T14:46:56Z</time>
      </trkpt>
      <trkpt lat="43.13281" lon="3.12388">
        <ele>17.183626</ele>
        <time>2009-11-04T14:46:56Z</time>
      </trkpt>
      <trkpt lat="43.13265" lon="3.12394">
        <ele>18.64505</ele>
        <time>2009-11-04T14:46:56Z</time>
      </trkpt>
      <trkpt lat="43.13268" lon="3.12336">
        <ele>21.515017</ele>
        <time>2009-11-04T14:46:56Z</time>
      </trkpt>
      <trkpt lat="43.13265" lon="3.12293">
        <ele>25.282257</ele>
        <time>2009-11-04T14:46:56Z</time>
      </trkpt>
      <trkpt lat="43.13323" lon="3.12212">
        <ele>26.810226</ele>
        <time>2009-11-04T14:46:56Z</time>
      </trkpt>
      <trkpt lat="43.13366" lon="3.12184">
        <ele>26.754519</ele>
        <time>2009-11-04T14:46:56Z</time>
      </trkpt>
      <trkpt lat="43.13405" lon="3.12143">
        <ele>28.665428</ele>
        <time>2009-11-04T14:46:56Z</time>
      </trkpt>
      <trkpt lat="43.13406" lon="3.12082">
        <ele>30.718857</ele>
        <time>2009-11-04T14:46:56Z</time>
      </trkpt>
      <trkpt lat="43.13436" lon="3.1207">
        <ele>33.290195</ele>
        <time>2009-11-04T14:46:56Z</time>
      </trkpt>
      <trkpt lat="43.13472" lon="3.12015">
        <ele>38.942757</ele>
        <time>2009-11-04T14:46:56Z</time>
      </trkpt>
      <trkpt lat="43.13502" lon="3.11963">
        <ele>42.97892</ele>
        <time>2009-11-04T14:46:56Z</time>
      </trkpt>
      <trkpt lat="43.13527" lon="3.11896">
        <ele>45.135948</ele>
        <time>2009-11-04T14:46:56Z</time>
      </trkpt>
      <trkpt lat="43.136" lon="3.11848">
        <ele>48.87529</ele>
        <time>2009-11-04T14:46:56Z</time>
      </trkpt>
      <trkpt lat="43.1362" lon="3.11786">
        <ele>51.611294</ele>
        <time>2009-11-04T14:46:56Z</time>
      </trkpt>
      <trkpt lat="43.13628" lon="3.11717">
        <ele>57.012043</ele>
        <time>2009-11-04T14:46:56Z</time>
      </trkpt>
      <trkpt lat="43.13647" lon="3.11688">
        <ele>58.582405</ele>
        <time>2009-11-04T14:46:56Z</time>
      </trkpt>
      <trkpt lat="43.13696" lon="3.11653">
        <ele>59.035694</ele>
        <time>2009-11-04T14:46:56Z</time>
      </trkpt>
      <trkpt lat="43.137" lon="3.11626">
        <ele>63.023056</ele>
        <time>2009-11-04T14:46:56Z</time>
      </trkpt>
      <trkpt lat="43.13602" lon="3.11615">
        <ele>62.624821</ele>
        <time>2009-11-04T14:46:56Z</time>
      </trkpt>
      <trkpt lat="43.13593" lon="3.11586">
        <ele>61.142452</ele>
        <time>2009-11-04T14:46:56Z</time>
      </trkpt>
      <trkpt lat="43.13613" lon="3.11552">
        <ele>61.500088</ele>
        <time>2009-11-04T14:46:56Z</time>
      </trkpt>
      <trkpt lat="43.13656" lon="3.1153">
        <ele>59.224121</ele>
        <time>2009-11-04T14:46:56Z</time>
      </trkpt>
      <trkpt lat="43.13735" lon="3.11537">
        <ele>62.60046</ele>
        <time>2009-11-04T14:46:56Z</time>
      </trkpt>
      <trkpt lat="43.13795" lon="3.11553">
        <ele>69.365631</ele>
        <time>2009-11-04T14:46:56Z</time>
      </trkpt>
      <trkpt lat="43.13823" lon="3.11517">
        <ele>68.528236</ele>
        <time>2009-11-04T14:46:56Z</time>
      </trkpt>
      <trkpt lat="43.13831" lon="3.11474">
        <ele>67.901917</ele>
        <time>2009-11-04T14:46:56Z</time>
      </trkpt>
      <trkpt lat="43.13834" lon="3.11413">
        <ele>68.706596</ele>
        <time>2009-11-04T14:46:56Z</time>
      </trkpt>
      <trkpt lat="43.13817" lon="3.11385">
        <ele>67.75853</ele>
        <time>2009-11-04T14:46:56Z</time>
      </trkpt>
      <trkpt lat="43.13765" lon="3.11367">
        <ele>66.393364</ele>
        <time>2009-11-04T14:46:56Z</time>
      </trkpt>
      <trkpt lat="43.13766" lon="3.11255">
        <ele>68.051392</ele>
        <time>2009-11-04T14:46:56Z</time>
      </trkpt>
      <trkpt lat="43.13782" lon="3.11154">
        <ele>63.626457</ele>
        <time>2009-11-04T14:46:56Z</time>
      </trkpt>
      <trkpt lat="43.13829" lon="3.11149">
        <ele>61.321369</ele>
        <time>2009-11-04T14:46:56Z</time>
      </trkpt>
      <trkpt lat="43.13902" lon="3.11153">
        <ele>59.555271</ele>
        <time>2009-11-04T14:46:56Z</time>
      </trkpt>
      <trkpt lat="43.13926" lon="3.11169">
        <ele>60.945854</ele>
        <time>2009-11-04T14:46:56Z</time>
      </trkpt>
      <trkpt lat="43.13944" lon="3.1123">
        <ele>64.178787</ele>
        <time>2009-11-04T14:46:56Z</time>
      </trkpt>
      <trkpt lat="43.13949" lon="3.11298">
        <ele>63.391582</ele>
        <time>2009-11-04T14:46:56Z</time>
      </trkpt>
      <trkpt lat="43.13972" lon="3.11359">
        <ele>60.197128</ele>
        <time>2009-11-04T14:46:56Z</time>
      </trkpt>
      <trkpt lat="43.13982" lon="3.1147">
        <ele>64.479263</ele>
        <time>2009-11-04T14:46:56Z</time>
      </trkpt>
      <trkpt lat="43.14033" lon="3.11599">
        <ele>63.569698</ele>
        <time>2009-11-04T14:46:56Z</time>
      </trkpt>
      <trkpt lat="43.14118" lon="3.11677">
        <ele>66.300285</ele>
        <time>2009-11-04T14:46:56Z</time>
      </trkpt>
      <trkpt lat="43.14163" lon="3.11663">
        <ele>65.5457</ele>
        <time>2009-11-04T14:46:56Z</time>
      </trkpt>
      <trkpt lat="43.14199" lon="3.11635">
        <ele>63.694927</ele>
        <time>2009-11-04T14:46:56Z</time>
      </trkpt>
      <trkpt lat="43.1421" lon="3.11728">
        <ele>66.600082</ele>
        <time>2009-11-04T14:46:56Z</time>
      </trkpt>
      <trkpt lat="43.14214" lon="3.11757">
        <ele>67.321671</ele>
        <time>2009-11-04T14:46:56Z</time>
      </trkpt>
      <trkpt lat="43.1423" lon="3.11769">
        <ele>66.577019</ele>
        <time>2009-11-04T14:46:56Z</time>
      </trkpt>
      <trkpt lat="43.1425" lon="3.11777">
        <ele>65.240723</ele>
        <time>2009-11-04T14:46:56Z</time>
      </trkpt>
      <trkpt lat="43.14243" lon="3.11829">
        <ele>67.173866</ele>
        <time>2009-11-04T14:46:56Z</time>
      </trkpt>
      <trkpt lat="43.1423" lon="3.11949">
        <ele>67.680008</ele>
        <time>2009-11-04T14:46:56Z</time>
      </trkpt>
      <trkpt lat="43.14225" lon="3.12013">
        <ele>66.620651</ele>
        <time>2009-11-04T14:46:56Z</time>
      </trkpt>
      <trkpt lat="43.1418" lon="3.12068">
        <ele>63.050076</ele>
        <time>2009-11-04T14:46:56Z</time>
      </trkpt>
      <trkpt lat="43.14139" lon="3.1222">
        <ele>56.654991</ele>
        <time>2009-11-04T14:46:56Z</time>
      </trkpt>
      <trkpt lat="43.14091" lon="3.12327">
        <ele>49.450214</ele>
        <time>2009-11-04T14:46:56Z</time>
      </trkpt>
      <trkpt lat="43.14086" lon="3.12401">
        <ele>48.100552</ele>
        <time>2009-11-04T14:46:56Z</time>
      </trkpt>
      <trkpt lat="43.1406" lon="3.12465">
        <ele>48.320362</ele>
        <time>2009-11-04T14:46:56Z</time>
      </trkpt>
      <trkpt lat="43.14027" lon="3.12512">
        <ele>46.416111</ele>
        <time>2009-11-04T14:46:56Z</time>
      </trkpt>
      <trkpt lat="43.14012" lon="3.12578">
        <ele>45.250153</ele>
        <time>2009-11-04T14:46:56Z</time>
      </trkpt>
      <trkpt lat="43.14021" lon="3.12676">
        <ele>45.924889</ele>
        <time>2009-11-04T14:46:56Z</time>
      </trkpt>
      <trkpt lat="43.13978" lon="3.12737">
        <ele>42.10006</ele>
        <time>2009-11-04T14:46:56Z</time>
      </trkpt>
      <trkpt lat="43.13983" lon="3.12853">
        <ele>39.750343</ele>
        <time>2009-11-04T14:46:56Z</time>
      </trkpt>
      <trkpt lat="43.13987" lon="3.12915">
        <ele>38.069344</ele>
        <time>2009-11-04T14:46:56Z</time>
      </trkpt>
      <trkpt lat="43.13968" lon="3.12924">
        <ele>35.809772</ele>
        <time>2009-11-04T14:46:56Z</time>
      </trkpt>
      <trkpt lat="43.13945" lon="3.1292">
        <ele>34.080532</ele>
        <time>2009-11-04T14:46:56Z</time>
      </trkpt>
      <trkpt lat="43.13889" lon="3.12861">
        <ele>31.654881</ele>
        <time>2009-11-04T14:46:56Z</time>
      </trkpt>
      <trkpt lat="43.13831" lon="3.12842">
        <ele>31.950388</ele>
        <time>2009-11-04T14:46:56Z</time>
      </trkpt>
      <trkpt lat="43.13792" lon="3.12855">
        <ele>28.642298</ele>
        <time>2009-11-04T14:46:56Z</time>
      </trkpt>
      <trkpt lat="43.13794" lon="3.12906">
        <ele>27.65011</ele>
        <time>2009-11-04T14:46:56Z</time>
      </trkpt>
      <trkpt lat="43.13793" lon="3.1296">
        <ele>23.389788</ele>
        <time>2009-11-04T14:46:56Z</time>
      </trkpt>
      <trkpt lat="43.13779" lon="3.12982">
        <ele>19.939489</ele>
        <time>2009-11-04T14:46:56Z</time>
      </trkpt>
      <trkpt lat="43.13744" lon="3.12985">
        <ele>15.649431</ele>
        <time>2009-11-04T14:46:56Z</time>
      </trkpt>
      <trkpt lat="43.13715" lon="3.12966">
        <ele>13.800459</ele>
        <time>2009-11-04T14:46:56Z</time>
      </trkpt>
      <trkpt lat="43.13693" lon="3.12901">
        <ele>18.850178</ele>
        <time>2009-11-04T14:46:56Z</time>
      </trkpt>
      <trkpt lat="43.13687" lon="3.12863">
        <ele>17.39621</ele>
        <time>2009-11-04T14:46:56Z</time>
      </trkpt>
      <trkpt lat="43.13661" lon="3.12835">
        <ele>12.303897</ele>
        <time>2009-11-04T14:46:56Z</time>
      </trkpt>
      <trkpt lat="43.1364" lon="3.12849">
        <ele>9.492374</ele>
        <time>2009-11-04T14:46:56Z</time>
      </trkpt>
      <trkpt lat="43.1363" lon="3.12862">
        <ele>7.505727</ele>
        <time>2009-11-04T14:46:56Z</time>
      </trkpt>
      <trkpt lat="43.13602" lon="3.12865">
        <ele>4.719537</ele>
        <time>2009-11-04T14:46:56Z</time>
      </trkpt>
      <trkpt lat="43.13615" lon="3.12917">
        <ele>4.997633</ele>
        <time>2009-11-04T14:46:56Z</time>
      </trkpt>
      <trkpt lat="43.13619" lon="3.12948">
        <ele>3.967211</ele>
        <time>2009-11-04T14:46:56Z</time>
      </trkpt>
      <trkpt lat="43.1365" lon="3.12968">
        <ele>4.992858</ele>
        <time>2009-11-04T14:46:56Z</time>
      </trkpt>
      <trkpt lat="43.13728" lon="3.13074">
        <ele>4.280151</ele>
        <time>2009-11-04T14:46:56Z</time>
      </trkpt>
      <trkpt lat="43.13696" lon="3.1319">
        <ele>2.270042</ele>
        <time>2009-11-04T14:46:56Z</time>
      </trkpt>
      <trkpt lat="43.13675" lon="3.13285">
        <ele>2.950082</ele>
        <time>2009-11-04T14:46:56Z</time>
      </trkpt>
      <trkpt lat="43.13591" lon="3.13443">
        <ele>3.510072</ele>
        <time>2009-11-04T14:46:56Z</time>
      </trkpt>
      <trkpt lat="43.13522" lon="3.13376">
        <ele>3.374182</ele>
        <time>2009-11-04T14:46:56Z</time>
      </trkpt>
      <trkpt lat="43.13462" lon="3.13469">
        <ele>2</ele>
        <time>2009-11-04T14:46:56Z</time>
      </trkpt>
      <trkpt lat="43.13397" lon="3.13515">
        <ele>2</ele>
        <time>2009-11-04T14:46:56Z</time>
      </trkpt>
      <trkpt lat="43.13317" lon="3.13548">
        <ele>1</ele>
        <time>2009-11-04T14:46:56Z</time>
      </trkpt>
      <trkpt lat="43.1322" lon="3.13597">
        <ele>1</ele>
        <time>2009-11-04T14:46:56Z</time>
      </trkpt>
      <trkpt lat="43.1319" lon="3.13618">
        <ele>1</ele>
        <time>2009-11-04T14:46:56Z</time>
      </trkpt>
      <trkpt lat="43.13147" lon="3.13593">
        <ele>1</ele>
        <time>2009-11-04T14:46:56Z</time>
      </trkpt>
      <trkpt lat="43.13049" lon="3.13506">
        <ele>1</ele>
        <time>2009-11-04T14:46:56Z</time>
      </trkpt>
      <trkpt lat="43.13012" lon="3.13551">
        <ele>1</ele>
        <time>2009-11-04T14:46:56Z</time>
      </trkpt>
      <trkpt lat="43.12967" lon="3.13658">
        <ele>1</ele>
        <time>2009-11-04T14:46:56Z</time>
      </trkpt>
      <trkpt lat="43.12932" lon="3.13664">
        <ele>1</ele>
        <time>2009-11-04T14:46:56Z</time>
      </trkpt>
      <trkpt lat="43.12157" lon="3.12939">
        <ele>1</ele>
        <time>2009-11-04T14:46:56Z</time>
      </trkpt>
      <trkpt lat="43.12099" lon="3.12876">
        <ele>1</ele>
        <time>2009-11-04T14:46:56Z</time>
      </trkpt>
      <trkpt lat="43.12018" lon="3.1282">
        <ele>1</ele>
        <time>2009-11-04T14:46:56Z</time>
      </trkpt>
      <trkpt lat="43.11933" lon="3.12767">
        <ele>1</ele>
        <time>2009-11-04T14:46:56Z</time>
      </trkpt>
      <trkpt lat="43.11884" lon="3.12735">
        <ele>1</ele>
        <time>2009-11-04T14:46:56Z</time>
      </trkpt>
      <trkpt lat="43.11826" lon="3.12692">
        <ele>1</ele>
        <time>2009-11-04T14:46:56Z</time>
      </trkpt>
      <trkpt lat="43.11781" lon="3.12657">
        <ele>1</ele>
        <time>2009-11-04T14:46:56Z</time>
      </trkpt>
      <trkpt lat="43.11752" lon="3.12636">
        <ele>1</ele>
        <time>2009-11-04T14:46:56Z</time>
      </trkpt>
      <trkpt lat="43.11724" lon="3.12624">
        <ele>1</ele>
        <time>2009-11-04T14:46:56Z</time>
      </trkpt>
      <trkpt lat="43.11683" lon="3.12625">
        <ele>1.059962</ele>
        <time>2009-11-04T14:46:56Z</time>
      </trkpt>
      <trkpt lat="43.11615" lon="3.12621">
        <ele>1.049981</ele>
        <time>2009-11-04T14:46:56Z</time>
      </trkpt>
      <trkpt lat="43.11557" lon="3.12608">
        <ele>1</ele>
        <time>2009-11-04T14:46:56Z</time>
      </trkpt>
      <trkpt lat="43.11515" lon="3.12602">
        <ele>1</ele>
        <time>2009-11-04T14:46:56Z</time>
      </trkpt>
      <trkpt lat="43.1147" lon="3.12589">
        <ele>1</ele>
        <time>2009-11-04T14:46:56Z</time>
      </trkpt>
      <trkpt lat="43.11432" lon="3.1257">
        <ele>1</ele>
        <time>2009-11-04T14:46:56Z</time>
      </trkpt>
      <trkpt lat="43.1139" lon="3.12499">
        <ele>1</ele>
        <time>2009-11-04T14:46:56Z</time>
      </trkpt>
      <trkpt lat="43.11348" lon="3.12397">
        <ele>1.969996</ele>
        <time>2009-11-04T14:46:56Z</time>
      </trkpt>
      <trkpt lat="43.11368" lon="3.12288">
        <ele>2</ele>
        <time>2009-11-04T14:46:56Z</time>
      </trkpt>
      <trkpt lat="43.11466" lon="3.11988">
        <ele>3</ele>
        <time>2009-11-04T14:46:56Z</time>
      </trkpt>
      <trkpt lat="43.11513" lon="3.11829">
        <ele>2</ele>
        <time>2009-11-04T14:46:56Z</time>
      </trkpt>
      <trkpt lat="43.11548" lon="3.11734">
        <ele>2</ele>
        <time>2009-11-04T14:46:56Z</time>
      </trkpt>
      <trkpt lat="43.11594" lon="3.11635">
        <ele>2</ele>
        <time>2009-11-04T14:46:56Z</time>
      </trkpt>
      <trkpt lat="43.11617" lon="3.11576">
        <ele>2</ele>
        <time>2009-11-04T14:46:56Z</time>
      </trkpt>
      <trkpt lat="43.11686" lon="3.11436">
        <ele>2</ele>
        <time>2009-11-04T14:46:56Z</time>
      </trkpt>
      <trkpt lat="43.11731" lon="3.11392">
        <ele>2</ele>
        <time>2009-11-04T14:46:56Z</time>
      </trkpt>
      <trkpt lat="43.11789" lon="3.11347">
        <ele>2</ele>
        <time>2009-11-04T14:46:56Z</time>
      </trkpt>
      <trkpt lat="43.11821" lon="3.11315">
        <ele>2.561671</ele>
        <time>2009-11-04T14:46:56Z</time>
      </trkpt>
      <trkpt lat="43.11861" lon="3.1126">
        <ele>3</ele>
        <time>2009-11-04T14:46:56Z</time>
      </trkpt>
      <trkpt lat="43.11904" lon="3.1119">
        <ele>3</ele>
        <time>2009-11-04T14:46:56Z</time>
      </trkpt>
      <trkpt lat="43.11912" lon="3.11163">
        <ele>3</ele>
        <time>2009-11-04T14:46:56Z</time>
      </trkpt>
      <trkpt lat="43.11909" lon="3.11138">
        <ele>3</ele>
        <time>2009-11-04T14:46:56Z</time>
      </trkpt>
      <trkpt lat="43.11933" lon="3.11091">
        <ele>3</ele>
        <time>2009-11-04T14:46:56Z</time>
      </trkpt>
      <trkpt lat="43.11902" lon="3.11003">
        <ele>3</ele>
        <time>2009-11-04T14:46:56Z</time>
      </trkpt>
      <trkpt lat="43.11867" lon="3.10886">
        <ele>3</ele>
        <time>2009-11-04T14:46:56Z</time>
      </trkpt>
      <trkpt lat="43.11848" lon="3.10788">
        <ele>3</ele>
        <time>2009-11-04T14:46:56Z</time>
      </trkpt>
      <trkpt lat="43.11853" lon="3.10724">
        <ele>3</ele>
        <time>2009-11-04T14:46:56Z</time>
      </trkpt>
      <trkpt lat="43.1188" lon="3.10666">
        <ele>3</ele>
        <time>2009-11-04T14:46:56Z</time>
      </trkpt>
      <trkpt lat="43.11894" lon="3.10632">
        <ele>3</ele>
        <time>2009-11-04T14:46:56Z</time>
      </trkpt>
      <trkpt lat="43.11903" lon="3.10568">
        <ele>3</ele>
        <time>2009-11-04T14:46:56Z</time>
      </trkpt>
      <trkpt lat="43.11904" lon="3.10525">
        <ele>3.136255</ele>
        <time>2009-11-04T14:46:56Z</time>
      </trkpt>
      <trkpt lat="43.11908" lon="3.10473">
        <ele>3.37328</ele>
        <time>2009-11-04T14:46:56Z</time>
      </trkpt>
    </trkseg>
  </trk>
</gpx>